Date String (YYYY-MM-DD hh:mm:ss) UTC,Instrument flags,absolute air pressure of the measurement (hPa),sample flow rate (lpm),inlet stack bypass flow (lpm),air temperature of the measurement (°C),ambient temperature measured by the external sensor (°C),aerosol sample conditioner tube jacket temperature (°C),OPC LED temperature (°C),internal box temperature (°C),relative humidity of the measurement (%),span deviation,mass concentration of particles derived from Lorenz-Mie calculation of OPC scattering (μg/m³),mass concentration of particles derived from Lorenz-Mie calculation of OPC scattering (μg/m³),mass concentration of particles derived from Lorenz-Mie calculation of OPC scattering (μg/m³)
DateTimeUTC,F1_M11,P_M11,Q1_M11,Q2_M11,T1_M11,T2_M11,T3_M11,T4_M11,T5_M11,U1_M11,ZSPAN_M11,X2_M11,X0_M11,X1_M11
2023-12-21 18:00:00,SystemResetWarning,0832.6,5.00,000.00,025.5,024.9,000.0,033.6,027.0,14.4,0000.0,0002.32,0004.73,0001.67
2023-12-21 18:01:00,SystemResetWarning,0832.5,4.99,000.00,025.5,024.9,000.0,033.6,027.0,14.3,0000.0,0002.43,0004.84,0001.74
2023-12-21 18:02:00,SystemResetWarning,0832.5,5.00,000.00,025.5,024.9,000.0,033.6,027.0,14.3,0000.0,0002.49,0004.88,0001.80
2023-12-21 18:03:00,SystemResetWarning,0832.5,5.01,000.00,025.6,024.9,000.0,033.7,027.0,14.3,0000.0,0002.49,0004.78,0001.84
2023-12-21 18:04:00,SystemResetWarning,0832.5,5.02,000.00,025.6,024.9,000.0,033.7,027.1,14.4,0000.0,0002.47,0004.47,0001.84
2023-12-21 18:05:00,SystemResetWarning,0832.5,4.99,000.00,025.6,025.0,000.0,033.7,027.1,14.3,0000.0,0002.40,0004.17,0001.81
2023-12-21 18:06:00,SystemResetWarning,0832.5,4.99,000.00,025.6,025.0,000.0,033.7,027.1,14.2,0000.0,0002.42,0004.10,0001.84
2023-12-21 18:07:00,SystemResetWarning,0832.5,5.02,000.00,025.6,025.0,000.0,033.7,027.1,14.2,0000.0,0002.43,0004.17,0001.86
2023-12-21 18:08:00,SystemResetWarning,0832.5,5.00,000.00,025.7,025.0,000.0,033.7,027.1,14.2,0000.0,0002.50,0004.10,0001.91
2023-12-21 18:09:00,SystemResetWarning,0832.5,5.00,000.00,025.7,025.0,000.0,033.8,027.1,14.3,0000.0,0002.51,0003.99,0001.92
2023-12-21 18:10:00,SystemResetWarning,0832.5,4.99,000.00,025.7,025.0,000.0,033.8,027.1,14.3,0000.0,0002.46,0004.56,0001.91
2023-12-21 18:11:00,SystemResetWarning,0832.5,4.99,000.00,025.7,025.1,000.0,033.8,027.2,14.4,0000.0,0002.44,0004.75,0001.92
2023-12-21 18:12:00,SystemResetWarning,0832.4,4.99,000.00,025.7,025.1,000.0,033.8,027.2,14.3,0000.0,0002.37,0004.58,0001.94
2023-12-21 18:13:00,SystemResetWarning,0832.4,5.01,000.00,025.7,025.1,000.0,033.8,027.2,14.3,0000.0,0002.40,0004.60,0001.95
2023-12-21 18:14:00,SystemResetWarning,0832.4,5.00,000.00,025.8,025.1,000.0,033.8,027.2,14.3,0000.0,0002.49,0005.16,0002.00
2023-12-21 18:15:00,SystemResetWarning,0832.4,5.01,000.00,025.8,025.1,000.0,033.9,027.2,14.3,0000.0,0002.60,0005.42,0002.07
2023-12-21 18:16:00,SystemResetWarning,0832.4,5.01,000.00,025.8,025.1,000.0,033.9,027.2,14.2,0000.0,0002.71,0005.59,0002.15
2023-12-21 18:17:00,SystemResetWarning,0832.4,5.00,000.00,025.8,025.2,000.0,033.9,027.3,14.2,0000.0,0002.77,0005.68,0002.21
2023-12-21 18:18:00,SystemResetWarning,0832.4,5.00,000.00,025.8,025.2,000.0,033.9,027.3,14.1,0000.0,0002.89,0005.82,0002.30
2023-12-21 18:19:00,SystemResetWarning,0832.4,4.99,000.00,025.8,025.2,000.0,033.9,027.3,14.1,0000.0,0003.03,0006.13,0002.39
2023-12-21 18:20:00,SystemResetWarning,0832.3,5.00,000.00,025.9,025.2,000.0,033.9,027.3,14.2,0000.0,0003.09,0006.16,0002.47
2023-12-21 18:21:00,SystemResetWarning,0832.3,4.99,000.00,025.9,025.2,000.0,034.0,027.4,14.3,0000.0,0003.16,0005.78,0002.53
2023-12-21 18:22:00,SystemResetWarning,0832.3,4.99,000.00,025.9,025.2,000.0,034.0,027.3,14.2,0000.0,0003.18,0005.62,0002.57
2023-12-21 18:23:00,SystemResetWarning,0832.3,5.00,000.00,025.9,025.3,000.0,034.0,027.4,14.2,0000.0,0003.22,0005.82,0002.59
2023-12-21 18:24:00,SystemResetWarning,0832.3,5.00,000.00,025.9,025.3,000.0,034.0,027.4,14.2,0000.0,0003.26,0006.05,0002.64
2023-12-21 18:25:00,SystemResetWarning,0832.3,5.00,000.00,026.0,025.3,000.0,034.0,027.4,14.2,0000.0,0003.28,0006.70,0002.68
2023-12-21 18:26:00,SystemResetWarning,0832.3,5.00,000.00,026.0,025.3,000.0,034.1,027.4,14.2,0000.0,0003.27,0006.48,0002.70
2023-12-21 18:27:00,SystemResetWarning,0832.3,5.01,000.00,026.0,025.3,000.0,034.1,027.4,14.1,0000.0,0003.28,0006.49,0002.73
2023-12-21 18:28:00,SystemResetWarning,0832.3,5.00,000.00,026.0,025.3,000.0,034.1,027.4,14.0,0000.0,0003.31,0006.55,0002.78
2023-12-21 18:29:00,SystemResetWarning,0832.3,5.01,000.00,026.0,025.4,000.0,034.1,027.5,13.9,0000.0,0003.37,0007.04,0002.81
2023-12-21 18:30:00,SystemResetWarning,0832.3,5.00,000.00,026.0,025.4,000.0,034.1,027.5,13.9,0000.0,0003.39,0007.70,0002.81
2023-12-21 18:31:00,SystemResetWarning,0832.2,5.00,000.00,026.1,025.4,000.0,034.1,027.5,14.0,0000.0,0003.42,0007.77,0002.85
2023-12-21 18:32:00,SystemResetWarning,0832.2,5.00,000.00,026.1,025.4,000.0,034.2,027.5,14.2,0000.0,0003.44,0007.78,0002.90
2023-12-21 18:33:00,SystemResetWarning,0832.2,5.00,000.00,026.1,025.4,000.0,034.2,027.5,14.1,0000.0,0003.48,0007.75,0002.94
2023-12-21 18:34:00,SystemResetWarning,0832.2,5.00,000.00,026.1,025.4,000.0,034.2,027.6,14.0,0000.0,0003.49,0007.75,0002.99
2023-12-21 18:35:00,SystemResetWarning,0832.2,5.00,000.00,026.1,025.5,000.0,034.2,027.6,13.9,0000.0,0003.50,0007.77,0003.02
2023-12-21 18:36:00,SystemResetWarning,0832.1,5.00,000.00,026.1,025.5,000.0,034.2,027.6,14.0,0000.0,0003.48,0007.26,0003.04
2023-12-21 18:37:00,SystemResetWarning,0832.2,5.00,000.00,026.1,025.5,000.0,034.3,027.6,14.0,0000.0,0003.52,0007.13,0003.08
2023-12-21 18:38:00,SystemResetWarning,0832.2,5.00,000.00,026.2,025.5,000.0,034.3,027.6,14.0,0000.0,0003.59,0007.76,0003.12
2023-12-21 18:39:00,SystemResetWarning,0832.2,5.00,000.00,026.2,025.5,000.0,034.3,027.6,14.0,0000.0,0003.66,0008.15,0003.15
2023-12-21 18:40:00,SystemResetWarning,0832.2,5.00,000.00,026.2,025.5,000.0,034.3,027.6,14.0,0000.0,0003.66,0008.05,0003.17
2023-12-21 18:41:00,SystemResetWarning,0832.2,5.00,000.00,026.2,025.6,000.0,034.3,027.7,13.9,0000.0,0003.64,0007.38,0003.19
2023-12-21 18:42:00,SystemResetWarning,0832.2,5.00,000.00,026.2,025.6,000.0,034.3,027.7,13.9,0000.0,0003.66,0007.25,0003.21
2023-12-21 18:43:00,SystemResetWarning,0832.2,5.00,000.00,026.3,025.6,000.0,034.4,027.7,13.9,0000.0,0003.68,0007.32,0003.24
2023-12-21 18:44:00,SystemResetWarning,0832.1,5.00,000.00,026.3,025.6,000.0,034.4,027.8,13.9,0000.0,0003.73,0007.73,0003.28
2023-12-21 18:45:00,SystemResetWarning,0832.1,5.00,000.00,026.3,025.6,000.0,034.4,027.8,14.1,0000.0,0003.79,0007.99,0003.31
2023-12-21 18:46:00,SystemResetWarning,0832.2,5.00,000.00,026.3,025.7,000.0,034.4,027.8,14.1,0000.0,0003.85,0008.63,0003.35
2023-12-21 18:47:00,SystemResetWarning,0832.1,5.00,000.00,026.3,025.7,000.0,034.4,027.8,14.0,0000.0,0003.92,0008.75,0003.38
2023-12-21 18:48:00,SystemResetWarning,0832.1,5.00,000.00,026.4,025.7,000.0,034.5,027.8,14.0,0000.0,0003.99,0009.05,0003.42
2023-12-21 18:49:00,SystemResetWarning,0832.1,5.00,000.00,026.4,025.7,000.0,034.5,027.8,14.1,0000.0,0004.00,0009.21,0003.44
2023-12-21 18:50:00,SystemResetWarning,0832.1,5.00,000.00,026.4,025.8,000.0,034.5,027.9,14.0,0000.0,0003.99,0009.48,0003.45
2023-12-21 18:51:00,SystemResetWarning,0832.0,5.00,000.00,026.4,025.8,000.0,034.5,027.9,13.9,0000.0,0004.06,0009.59,0003.51
2023-12-21 18:52:00,SystemResetWarning,0832.0,5.00,000.00,026.4,025.8,000.0,034.5,027.9,13.9,0000.0,0004.14,0010.21,0003.59
2023-12-21 18:53:00,SystemResetWarning,0832.0,4.99,000.00,026.5,025.8,000.0,034.6,027.9,13.7,0000.0,0004.23,0010.47,0003.65
2023-12-21 18:54:00,SystemResetWarning,0832.0,5.00,000.00,026.5,025.8,000.0,034.6,027.9,13.7,0000.0,0004.31,0010.66,0003.72
2023-12-21 18:55:00,SystemResetWarning,0832.0,5.00,000.00,026.5,025.9,000.0,034.6,027.9,13.8,0000.0,0004.40,0010.45,0003.81
2023-12-21 18:56:00,SystemResetWarning,0832.0,5.00,000.00,026.5,025.9,000.0,034.6,028.0,13.8,0000.0,0004.48,0010.30,0003.87
2023-12-21 18:57:00,SystemResetWarning,0832.0,5.00,000.00,026.5,025.9,000.0,034.6,028.0,13.8,0000.0,0004.50,0010.32,0003.92
2023-12-21 18:58:00,SystemResetWarning,0832.0,5.00,000.00,026.6,025.8,000.0,034.7,028.1,13.7,0000.0,0004.53,0010.72,0003.96
2023-12-21 18:59:00,SystemResetWarning,0832.0,5.00,000.00,026.6,024.5,000.0,034.7,028.1,13.7,0000.0,0004.54,0010.90,0003.99
